Time,TemperatureF,DewpointF,PressureIn,WindDirection,WindDirectionDegrees,WindSpeedMPH,WindSpeedGustMPH,Humidity,HourlyPrecipIn,Conditions,Clouds,dailyrainin,SoftwareType,DateUTC
2013-08-11 00:00:00,57.3,48.7,30.08,NW,307,0.0,0.0,73,0.00,,,0.00,Wunderground v.1.15,2013-08-11 04:00:00,
2013-08-11 00:05:00,57.3,48.7,30.08,NW,307,0.0,0.0,73,0.00,,,0.00,Wunderground v.1.15,2013-08-11 04:05:00,
2013-08-11 00:10:00,57.1,48.5,30.08,NW,307,0.0,0.0,73,0.00,,,0.00,Wunderground v.1.15,2013-08-11 04:10:00,
2013-08-11 00:15:00,57.0,48.4,30.08,NW,307,0.0,0.0,73,0.00,,,0.00,Wunderground v.1.15,2013-08-11 04:15:00,
2013-08-11 00:20:00,56.8,48.6,30.08,NW,307,0.0,0.0,74,0.00,,,0.00,Wunderground v.1.15,2013-08-11 04:20:00,
2013-08-11 00:25:00,56.6,49.5,30.08,NW,307,0.0,0.0,77,0.00,,,0.00,Wunderground v.1.15,2013-08-11 04:25:00,
2013-08-11 00:30:00,56.3,49.2,30.08,NW,307,0.0,0.0,77,0.00,,,0.00,Wunderground v.1.15,2013-08-11 04:30:00,
2013-08-11 00:35:00,56.0,49.2,30.08,NW,307,0.0,0.0,78,0.00,,,0.00,Wunderground v.1.15,2013-08-11 04:35:00,
2013-08-11 00:40:00,55.6,48.8,30.08,NW,307,0.0,0.0,78,0.00,,,0.00,Wunderground v.1.15,2013-08-11 04:40:00,
2013-08-11 00:45:00,55.5,49.4,30.08,NW,307,0.0,0.0,80,0.00,,,0.00,Wunderground v.1.15,2013-08-11 04:45:00,
2013-08-11 00:50:00,55.2,49.5,30.08,NW,307,0.0,0.0,81,0.00,,,0.00,Wunderground v.1.15,2013-08-11 04:50:00,
2013-08-11 00:55:00,54.9,48.8,30.08,NW,307,0.0,0.0,80,0.00,,,0.00,Wunderground v.1.15,2013-08-11 04:55:00,
2013-08-11 01:00:00,54.6,48.2,30.08,NW,307,0.0,0.0,79,0.00,,,0.00,Wunderground v.1.15,2013-08-11 05:00:00,
2013-08-11 01:05:00,54.3,48.6,30.08,NW,307,0.0,0.0,81,0.00,,,0.00,Wunderground v.1.15,2013-08-11 05:05:00,
2013-08-11 01:10:00,54.1,48.7,30.08,NW,307,0.0,0.0,82,0.00,,,0.00,Wunderground v.1.15,2013-08-11 05:10:00,
2013-08-11 01:15:00,53.9,48.9,30.08,NW,307,0.0,0.0,83,0.00,,,0.00,Wunderground v.1.15,2013-08-11 05:15:00,
2013-08-11 01:20:00,53.6,48.9,30.08,NW,307,0.0,0.0,84,0.00,,,0.00,Wunderground v.1.15,2013-08-11 05:20:00,
2013-08-11 01:25:00,53.3,48.9,30.08,NW,307,0.0,0.0,85,0.00,,,0.00,Wunderground v.1.15,2013-08-11 05:25:00,
2013-08-11 01:30:00,53.2,48.8,30.09,NW,307,0.0,0.0,85,0.00,,,0.00,Wunderground v.1.15,2013-08-11 05:30:00,
2013-08-11 01:40:00,52.8,48.7,30.09,NW,307,0.0,0.0,86,0.00,,,0.00,Wunderground v.1.15,2013-08-11 05:40:00,
2013-08-11 01:50:00,52.6,49.1,30.09,NW,307,0.0,0.0,88,0.00,,,0.00,Wunderground v.1.15,2013-08-11 05:50:00,
2013-08-11 01:55:00,52.5,48.7,30.09,NW,307,0.0,0.0,87,0.00,,,0.00,Wunderground v.1.15,2013-08-11 05:55:00,
2013-08-11 02:00:00,52.6,49.1,30.09,NW,307,0.0,0.0,88,0.00,,,0.00,Wunderground v.1.15,2013-08-11 06:00:00,
2013-08-11 02:05:00,52.7,48.9,30.09,NW,307,0.0,0.0,87,0.00,,,0.00,Wunderground v.1.15,2013-08-11 06:05:00,
2013-08-11 02:15:00,52.9,49.1,30.09,NW,307,0.0,0.0,87,0.00,,,0.00,Wunderground v.1.15,2013-08-11 06:15:00,
2013-08-11 02:20:00,53.1,49.0,30.08,NW,307,0.0,0.0,86,0.00,,,0.00,Wunderground v.1.15,2013-08-11 06:20:00,
2013-08-11 02:25:00,53.3,49.2,30.08,NW,307,0.0,0.0,86,0.00,,,0.00,Wunderground v.1.15,2013-08-11 06:25:00,
2013-08-11 02:30:00,53.4,49.3,30.08,NW,307,0.0,1.0,86,0.00,,,0.00,Wunderground v.1.15,2013-08-11 06:30:00,
2013-08-11 02:35:00,53.7,49.6,30.08,NW,307,0.0,1.0,86,0.00,,,0.00,Wunderground v.1.15,2013-08-11 06:35:00,
2013-08-11 02:45:00,54.0,49.6,30.08,NW,307,0.0,0.0,85,0.00,,,0.00,Wunderground v.1.15,2013-08-11 06:45:00,
2013-08-11 02:50:00,54.2,50.1,30.08,NW,307,0.0,0.0,86,0.00,,,0.00,Wunderground v.1.15,2013-08-11 06:50:00,
2013-08-11 02:55:00,54.3,50.2,30.08,NW,307,0.0,0.0,86,0.00,,,0.00,Wunderground v.1.15,2013-08-11 06:55:00,
2013-08-11 03:00:00,54.4,50.3,30.09,NW,307,0.0,0.0,86,0.00,,,0.00,Wunderground v.1.15,2013-08-11 07:00:00,
2013-08-11 03:05:00,54.6,50.5,30.09,NW,307,0.0,0.0,86,0.00,,,0.00,Wunderground v.1.15,2013-08-11 07:05:00,
2013-08-11 03:10:00,54.8,50.7,30.09,NW,307,0.0,0.0,86,0.00,,,0.00,Wunderground v.1.15,2013-08-11 07:10:00,
2013-08-11 03:15:00,54.9,50.5,30.09,NW,307,0.0,0.0,85,0.00,,,0.00,Wunderground v.1.15,2013-08-11 07:15:00,
2013-08-11 03:20:00,55.0,50.6,30.09,NW,307,0.0,0.0,85,0.00,,,0.00,Wunderground v.1.15,2013-08-11 07:20:00,
2013-08-11 03:25:00,55.0,50.6,30.09,NW,307,0.0,0.0,85,0.00,,,0.00,Wunderground v.1.15,2013-08-11 07:25:00,
2013-08-11 03:30:00,54.8,50.7,30.09,NW,307,0.0,0.0,86,0.00,,,0.00,Wunderground v.1.15,2013-08-11 07:30:00,
2013-08-11 03:40:00,54.3,50.5,30.09,NW,307,0.0,0.0,87,0.00,,,0.00,Wunderground v.1.15,2013-08-11 07:40:00,
2013-08-11 03:45:00,54.1,50.3,30.09,NW,307,0.0,0.0,87,0.00,,,0.00,Wunderground v.1.15,2013-08-11 07:45:00,
2013-08-11 03:50:00,54.0,50.5,30.09,NW,307,0.0,0.0,88,0.00,,,0.00,Wunderground v.1.15,2013-08-11 07:50:00,
2013-08-11 03:55:00,53.9,50.4,30.09,NW,307,0.0,0.0,88,0.00,,,0.00,Wunderground v.1.15,2013-08-11 07:55:00,
2013-08-11 04:00:00,53.8,50.3,30.09,NW,307,0.0,0.0,88,0.00,,,0.00,Wunderground v.1.15,2013-08-11 08:00:00,
2013-08-11 04:05:00,53.7,50.5,30.09,NW,307,0.0,0.0,89,0.00,,,0.00,Wunderground v.1.15,2013-08-11 08:05:00,
2013-08-11 04:10:00,53.5,50.3,30.09,NW,307,0.0,0.0,89,0.00,,,0.00,Wunderground v.1.15,2013-08-11 08:10:00,
2013-08-11 04:15:00,53.4,50.2,30.09,NW,307,0.0,0.0,89,0.00,,,0.00,Wunderground v.1.15,2013-08-11 08:15:00,
2013-08-11 04:20:00,53.3,50.1,30.09,NW,307,0.0,0.0,89,0.00,,,0.00,Wunderground v.1.15,2013-08-11 08:20:00,
2013-08-11 04:25:00,53.2,50.6,30.09,NW,307,0.0,0.0,91,0.00,,,0.00,Wunderground v.1.15,2013-08-11 08:25:00,
2013-08-11 04:30:00,53.2,50.6,30.09,NW,307,0.0,0.0,91,0.00,,,0.00,Wunderground v.1.15,2013-08-11 08:30:00,
2013-08-11 04:35:00,53.2,50.6,30.09,NW,307,0.0,0.0,91,0.00,,,0.00,Wunderground v.1.15,2013-08-11 08:35:00,
2013-08-11 04:40:00,53.2,50.6,30.09,NW,307,0.0,0.0,91,0.00,,,0.00,Wunderground v.1.15,2013-08-11 08:40:00,
2013-08-11 04:45:00,53.1,50.5,30.09,NW,307,0.0,0.0,91,0.00,,,0.00,Wunderground v.1.15,2013-08-11 08:45:00,
2013-08-11 04:50:00,53.0,50.4,30.10,NW,307,0.0,0.0,91,0.00,,,0.00,Wunderground v.1.15,2013-08-11 08:50:00,
2013-08-11 05:00:00,52.8,50.2,30.10,NW,307,0.0,0.0,91,0.00,,,0.00,Wunderground v.1.15,2013-08-11 09:00:00,
2013-08-11 05:05:00,52.7,50.1,30.10,NW,307,0.0,0.0,91,0.00,,,0.00,Wunderground v.1.15,2013-08-11 09:05:00,
2013-08-11 05:10:00,52.6,50.0,30.10,NW,307,0.0,0.0,91,0.00,,,0.00,Wunderground v.1.15,2013-08-11 09:10:00,
2013-08-11 05:15:00,52.5,49.9,30.11,NW,307,0.0,0.0,91,0.00,,,0.00,Wunderground v.1.15,2013-08-11 09:15:00,
2013-08-11 05:20:00,52.4,49.8,30.10,NW,307,0.0,0.0,91,0.00,,,0.00,Wunderground v.1.15,2013-08-11 09:20:00,
2013-08-11 05:25:00,52.4,50.1,30.10,NW,307,0.0,0.0,92,0.00,,,0.00,Wunderground v.1.15,2013-08-11 09:25:00,
2013-08-11 05:35:00,52.2,49.9,30.11,NW,307,0.0,0.0,92,0.00,,,0.00,Wunderground v.1.15,2013-08-11 09:35:00,
2013-08-11 05:40:00,52.2,49.9,30.11,NW,307,0.0,0.0,92,0.00,,,0.00,Wunderground v.1.15,2013-08-11 09:40:00,
2013-08-11 05:45:00,52.1,49.8,30.11,NW,307,0.0,0.0,92,0.00,,,0.00,Wunderground v.1.15,2013-08-11 09:45:00,
2013-08-11 05:50:00,52.1,50.1,30.11,NW,307,0.0,0.0,93,0.00,,,0.00,Wunderground v.1.15,2013-08-11 09:50:00,
2013-08-11 06:00:00,52.2,50.2,30.11,NW,307,0.0,0.0,93,0.00,,,0.00,Wunderground v.1.15,2013-08-11 10:00:00,
2013-08-11 06:05:00,52.3,50.3,30.11,NW,307,0.0,0.0,93,0.00,,,0.00,Wunderground v.1.15,2013-08-11 10:05:00,
2013-08-11 06:10:00,52.4,50.4,30.11,NW,307,0.0,0.0,93,0.00,,,0.00,Wunderground v.1.15,2013-08-11 10:10:00,
2013-08-11 06:15:00,52.5,50.2,30.11,NW,307,0.0,0.0,92,0.00,,,0.00,Wunderground v.1.15,2013-08-11 10:15:00,
2013-08-11 06:20:00,52.6,50.3,30.11,NW,307,0.0,0.0,92,0.00,,,0.00,Wunderground v.1.15,2013-08-11 10:20:00,
2013-08-11 06:25:00,52.7,50.4,30.11,NW,307,0.0,0.0,92,0.00,,,0.00,Wunderground v.1.15,2013-08-11 10:25:00,
2013-08-11 06:30:00,52.7,50.4,30.11,NW,307,0.0,0.0,92,0.00,,,0.00,Wunderground v.1.15,2013-08-11 10:30:00,
2013-08-11 06:35:00,52.8,50.5,30.11,NW,307,0.0,0.0,92,0.00,,,0.00,Wunderground v.1.15,2013-08-11 10:35:00,
2013-08-11 06:40:00,52.8,50.5,30.11,NW,307,0.0,0.0,92,0.00,,,0.00,Wunderground v.1.15,2013-08-11 10:40:00,
2013-08-11 06:45:00,52.9,50.6,30.12,NW,307,0.0,0.0,92,0.00,,,0.00,Wunderground v.1.15,2013-08-11 10:45:00,
2013-08-11 06:50:00,53.1,50.8,30.12,NW,307,0.0,0.0,92,0.00,,,0.00,Wunderground v.1.15,2013-08-11 10:50:00,
2013-08-11 06:55:00,53.4,50.8,30.12,NW,307,0.0,0.0,91,0.00,,,0.00,Wunderground v.1.15,2013-08-11 10:55:00,
2013-08-11 07:00:00,53.8,51.2,30.12,NW,307,0.0,0.0,91,0.00,,,0.00,Wunderground v.1.15,2013-08-11 11:00:00,
2013-08-11 07:05:00,54.2,51.6,30.12,NW,307,0.0,0.0,91,0.00,,,0.00,Wunderground v.1.15,2013-08-11 11:05:00,
2013-08-11 07:10:00,54.4,51.8,30.12,NW,307,0.0,0.0,91,0.00,,,0.00,Wunderground v.1.15,2013-08-11 11:10:00,
2013-08-11 07:15:00,54.5,51.9,30.12,NW,307,0.0,0.0,91,0.00,,,0.00,Wunderground v.1.15,2013-08-11 11:15:00,
2013-08-11 07:20:00,54.7,52.1,30.12,NW,307,0.0,0.0,91,0.00,,,0.00,Wunderground v.1.15,2013-08-11 11:20:00,
2013-08-11 07:30:00,55.0,52.4,30.12,NW,307,0.0,0.0,91,0.00,,,0.00,Wunderground v.1.15,2013-08-11 11:30:00,
2013-08-11 07:35:00,55.2,52.6,30.12,NW,307,0.0,0.0,91,0.00,,,0.00,Wunderground v.1.15,2013-08-11 11:35:00,
2013-08-11 07:40:00,55.4,52.8,30.12,NW,307,0.0,0.0,91,0.00,,,0.00,Wunderground v.1.15,2013-08-11 11:40:00,
2013-08-11 07:45:00,55.6,53.0,30.12,NW,307,0.0,0.0,91,0.00,,,0.00,Wunderground v.1.15,2013-08-11 11:45:00,
2013-08-11 07:50:00,55.9,53.3,30.12,NW,307,0.0,0.0,91,0.00,,,0.00,Wunderground v.1.15,2013-08-11 11:50:00,
2013-08-11 07:55:00,56.3,53.7,30.12,NW,307,0.0,0.0,91,0.00,,,0.00,Wunderground v.1.15,2013-08-11 11:55:00,
2013-08-11 08:00:00,56.8,54.2,30.12,NW,310,0.0,0.0,91,0.00,,,0.00,Wunderground v.1.15,2013-08-11 12:00:00,
2013-08-11 08:05:00,57.3,54.1,30.12,NW,310,0.0,0.0,89,0.00,,,0.00,Wunderground v.1.15,2013-08-11 12:05:00,
2013-08-11 08:10:00,57.7,54.5,30.13,NW,310,0.0,0.0,89,0.00,,,0.00,Wunderground v.1.15,2013-08-11 12:10:00,
2013-08-11 08:20:00,58.5,54.6,30.13,NW,310,0.0,0.0,87,0.00,,,0.00,Wunderground v.1.15,2013-08-11 12:20:00,
2013-08-11 08:25:00,59.0,55.1,30.13,NW,310,0.0,0.0,87,0.00,,,0.00,Wunderground v.1.15,2013-08-11 12:25:00,
2013-08-11 08:30:00,59.6,55.4,30.13,NW,310,0.0,0.0,86,0.00,,,0.00,Wunderground v.1.15,2013-08-11 12:30:00,
2013-08-11 08:35:00,60.3,55.8,30.13,NW,310,0.0,0.0,85,0.00,,,0.00,Wunderground v.1.15,2013-08-11 12:35:00,
2013-08-11 08:40:00,60.7,56.5,30.13,NW,310,0.0,0.0,86,0.00,,,0.00,Wunderground v.1.15,2013-08-11 12:40:00,
2013-08-11 08:45:00,61.4,57.2,30.13,NW,310,0.0,0.0,86,0.00,,,0.00,Wunderground v.1.15,2013-08-11 12:45:00,
2013-08-11 08:50:00,61.8,57.2,30.13,NW,310,0.0,0.0,85,0.00,,,0.00,Wunderground v.1.15,2013-08-11 12:50:00,
2013-08-11 08:55:00,62.4,56.8,30.13,NW,310,0.0,0.0,82,0.00,,,0.00,Wunderground v.1.15,2013-08-11 12:55:00,
2013-08-11 09:00:00,62.8,56.9,30.13,NW,307,0.0,0.0,81,0.00,,,0.00,Wunderground v.1.15,2013-08-11 13:00:00,
2013-08-11 09:05:00,63.3,57.0,30.13,NW,307,0.0,0.0,80,0.00,,,0.00,Wunderground v.1.15,2013-08-11 13:05:00,
2013-08-11 09:10:00,63.7,57.4,30.13,South,171,0.0,0.0,80,0.00,,,0.00,Wunderground v.1.15,2013-08-11 13:10:00,
2013-08-11 09:20:00,64.2,57.9,30.13,South,186,0.0,0.0,80,0.00,,,0.00,Wunderground v.1.15,2013-08-11 13:20:00,
2013-08-11 09:25:00,64.7,58.4,30.13,South,186,0.0,0.0,80,0.00,,,0.00,Wunderground v.1.15,2013-08-11 13:25:00,
2013-08-11 09:30:00,65.0,58.0,30.13,South,185,0.0,0.0,78,0.00,,,0.00,Wunderground v.1.15,2013-08-11 13:30:00,
2013-08-11 09:35:00,65.6,58.2,30.13,SSW,194,0.0,0.0,77,0.00,,,0.00,Wunderground v.1.15,2013-08-11 13:35:00,
2013-08-11 09:40:00,65.9,57.7,30.13,NW,319,0.0,0.0,75,0.00,,,0.00,Wunderground v.1.15,2013-08-11 13:40:00,
2013-08-11 09:45:00,66.3,57.8,30.13,West,262,0.0,1.0,74,0.00,,,0.00,Wunderground v.1.15,2013-08-11 13:45:00,
2013-08-11 09:50:00,66.7,58.5,30.13,West,279,0.0,0.0,75,0.00,,,0.00,Wunderground v.1.15,2013-08-11 13:50:00,
2013-08-11 09:55:00,66.9,57.6,30.13,NNW,329,0.0,0.0,72,0.00,,,0.00,Wunderground v.1.15,2013-08-11 13:55:00,
2013-08-11 10:00:00,67.3,57.2,30.13,NW,306,0.0,2.0,70,0.00,,,0.00,Wunderground v.1.15,2013-08-11 14:00:00,
2013-08-11 10:05:00,67.6,58.2,30.13,NW,306,0.0,2.0,72,0.00,,,0.00,Wunderground v.1.15,2013-08-11 14:05:00,
2013-08-11 10:10:00,67.9,57.8,30.13,NW,306,0.0,0.0,70,0.00,,,0.00,Wunderground v.1.15,2013-08-11 14:10:00,
2013-08-11 10:15:00,68.3,57.3,30.12,WSW,257,0.0,0.0,68,0.00,,,0.00,Wunderground v.1.15,2013-08-11 14:15:00,
2013-08-11 10:20:00,68.5,56.7,30.12,NW,310,1.0,1.0,66,0.00,,,0.00,Wunderground v.1.15,2013-08-11 14:20:00,
2013-08-11 10:25:00,68.8,57.0,30.12,WNW,300,1.0,1.0,66,0.00,,,0.00,Wunderground v.1.15,2013-08-11 14:25:00,
2013-08-11 10:30:00,69.2,56.9,30.12,WNW,286,1.0,1.0,65,0.00,,,0.00,Wunderground v.1.15,2013-08-11 14:30:00,
2013-08-11 10:35:00,69.4,57.1,30.12,WNW,283,1.0,1.0,65,0.00,,,0.00,Wunderground v.1.15,2013-08-11 14:35:00,
2013-08-11 10:40:00,69.5,55.0,30.12,West,280,0.0,0.0,60,0.00,,,0.00,Wunderground v.1.15,2013-08-11 14:40:00,
2013-08-11 10:45:00,69.6,55.6,30.12,NW,309,0.0,1.0,61,0.00,,,0.00,Wunderground v.1.15,2013-08-11 14:45:00,
2013-08-11 10:50:00,69.9,57.6,30.12,NW,309,0.0,0.0,65,0.00,,,0.00,Wunderground v.1.15,2013-08-11 14:50:00,
2013-08-11 11:05:00,70.7,55.7,30.11,West,273,0.0,1.0,59,0.00,,,0.00,Wunderground v.1.15,2013-08-11 15:05:00,
2013-08-11 11:10:00,70.9,58.1,30.11,WNW,302,0.0,2.0,64,0.00,,,0.00,Wunderground v.1.15,2013-08-11 15:10:00,
2013-08-11 11:15:00,71.3,57.6,30.11,West,281,1.0,2.0,62,0.00,,,0.00,Wunderground v.1.15,2013-08-11 15:15:00,
2013-08-11 11:25:00,71.4,57.7,30.11,NW,312,0.0,1.0,62,0.00,,,0.00,Wunderground v.1.15,2013-08-11 15:25:00,
2013-08-11 11:30:00,71.5,56.9,30.11,WNW,292,0.0,0.0,60,0.00,,,0.00,Wunderground v.1.15,2013-08-11 15:30:00,
2013-08-11 11:35:00,71.7,58.0,30.11,WNW,292,0.0,0.0,62,0.00,,,0.00,Wunderground v.1.15,2013-08-11 15:35:00,
2013-08-11 11:40:00,72.1,57.4,30.11,WNW,290,0.0,1.0,60,0.00,,,0.00,Wunderground v.1.15,2013-08-11 15:40:00,
2013-08-11 11:45:00,72.5,58.7,30.11,WNW,293,1.0,2.0,62,0.00,,,0.00,Wunderground v.1.15,2013-08-11 15:45:00,
2013-08-11 11:50:00,72.9,58.2,30.11,NW,313,1.0,1.0,60,0.00,,,0.00,Wunderground v.1.15,2013-08-11 15:50:00,
2013-08-11 11:55:00,73.1,56.0,30.11,NNW,329,1.0,1.0,55,0.00,,,0.00,Wunderground v.1.15,2013-08-11 15:55:00,
2013-08-11 12:00:00,73.4,57.2,30.10,NNW,346,0.0,0.0,57,0.00,,,0.00,Wunderground v.1.15,2013-08-11 16:00:00,
2013-08-11 12:05:00,73.2,56.1,30.10,NW,304,1.0,1.0,55,0.00,,,0.00,Wunderground v.1.15,2013-08-11 16:05:00,
2013-08-11 12:10:00,73.1,57.9,30.10,NW,311,1.0,1.0,59,0.00,,,0.00,Wunderground v.1.15,2013-08-11 16:10:00,
2013-08-11 12:15:00,72.7,56.6,30.10,West,263,0.0,1.0,57,0.00,,,0.00,Wunderground v.1.15,2013-08-11 16:15:00,
2013-08-11 12:20:00,72.6,59.3,30.09,West,263,0.0,0.0,63,0.00,,,0.00,Wunderground v.1.15,2013-08-11 16:20:00,
2013-08-11 12:25:00,72.2,58.9,30.09,SW,226,0.0,0.0,63,0.00,,,0.00,Wunderground v.1.15,2013-08-11 16:25:00,
2013-08-11 12:30:00,72.2,57.1,30.09,WSW,252,0.0,0.0,59,0.00,,,0.00,Wunderground v.1.15,2013-08-11 16:30:00,
2013-08-11 12:40:00,73.6,57.9,30.09,SW,233,0.0,0.0,58,0.00,,,0.00,Wunderground v.1.15,2013-08-11 16:40:00,
2013-08-11 12:45:00,73.9,60.1,30.09,SSW,200,0.0,0.0,62,0.00,,,0.00,Wunderground v.1.15,2013-08-11 16:45:00,
2013-08-11 12:50:00,73.9,57.7,30.08,NW,311,0.0,0.0,57,0.00,,,0.00,Wunderground v.1.15,2013-08-11 16:50:00,
2013-08-11 12:55:00,74.4,58.2,30.08,West,266,0.0,0.0,57,0.00,,,0.00,Wunderground v.1.15,2013-08-11 16:55:00,
2013-08-11 13:00:00,74.8,60.4,30.08,NW,311,0.0,1.0,61,0.00,,,0.00,Wunderground v.1.15,2013-08-11 17:00:00,
2013-08-11 13:05:00,75.4,60.5,30.08,NW,305,0.0,4.0,60,0.00,,,0.00,Wunderground v.1.15,2013-08-11 17:05:00,
2013-08-11 13:10:00,75.6,59.3,30.08,WNW,301,1.0,1.0,57,0.00,,,0.00,Wunderground v.1.15,2013-08-11 17:10:00,
2013-08-11 13:15:00,75.9,58.6,30.08,WNW,287,1.0,1.0,55,0.00,,,0.00,Wunderground v.1.15,2013-08-11 17:15:00,
2013-08-11 13:20:00,76.0,60.2,30.08,NW,312,0.0,0.0,58,0.00,,,0.00,Wunderground v.1.15,2013-08-11 17:20:00,
2013-08-11 13:25:00,76.4,60.0,30.07,NW,317,0.0,0.0,57,0.00,,,0.00,Wunderground v.1.15,2013-08-11 17:25:00,
2013-08-11 13:30:00,76.9,59.5,30.07,NW,305,0.0,0.0,55,0.00,,,0.00,Wunderground v.1.15,2013-08-11 17:30:00,
2013-08-11 13:35:00,77.7,59.7,30.07,NW,313,1.0,2.0,54,0.00,,,0.00,Wunderground v.1.15,2013-08-11 17:35:00,
2013-08-11 13:40:00,78.2,59.1,30.07,NW,319,1.0,1.0,52,0.00,,,0.00,Wunderground v.1.15,2013-08-11 17:40:00,
2013-08-11 13:45:00,78.2,57.5,30.07,South,177,1.0,1.0,49,0.00,,,0.00,Wunderground v.1.15,2013-08-11 17:45:00,
2013-08-11 13:50:00,78.3,61.8,30.07,NW,316,0.0,0.0,57,0.00,,,0.00,Wunderground v.1.15,2013-08-11 17:50:00,
2013-08-11 13:55:00,78.8,60.7,30.07,NW,317,0.0,1.0,54,0.00,,,0.00,Wunderground v.1.15,2013-08-11 17:55:00,
2013-08-11 14:00:00,79.1,60.0,30.07,NW,309,1.0,1.0,52,0.00,,,0.00,Wunderground v.1.15,2013-08-11 18:00:00,
2013-08-11 14:05:00,79.2,59.0,30.07,NW,309,1.0,1.0,50,0.00,,,0.00,Wunderground v.1.15,2013-08-11 18:05:00,
2013-08-11 14:10:00,78.6,58.4,30.07,NW,308,0.0,0.0,50,0.00,,,0.00,Wunderground v.1.15,2013-08-11 18:10:00,
2013-08-11 14:15:00,77.9,60.4,30.07,NW,313,0.0,0.0,55,0.00,,,0.00,Wunderground v.1.15,2013-08-11 18:15:00,
2013-08-11 14:20:00,77.4,60.0,30.07,NW,326,0.0,0.0,55,0.00,,,0.00,Wunderground v.1.15,2013-08-11 18:20:00,
2013-08-11 14:25:00,76.9,57.9,30.07,WNW,297,0.0,0.0,52,0.00,,,0.00,Wunderground v.1.15,2013-08-11 18:25:00,
2013-08-11 14:30:00,76.3,59.9,30.07,WNW,303,0.0,0.0,57,0.00,,,0.00,Wunderground v.1.15,2013-08-11 18:30:00,
2013-08-11 14:35:00,76.3,60.9,30.06,WNW,303,0.0,0.0,59,0.00,,,0.00,Wunderground v.1.15,2013-08-11 18:35:00,
2013-08-11 14:40:00,76.7,58.8,30.06,WNW,300,0.0,0.0,54,0.00,,,0.00,Wunderground v.1.15,2013-08-11 18:40:00,
2013-08-11 14:45:00,77.0,58.6,30.06,WNW,289,1.0,1.0,53,0.00,,,0.00,Wunderground v.1.15,2013-08-11 18:45:00,
2013-08-11 14:50:00,77.0,60.1,30.06,WNW,294,1.0,1.0,56,0.00,,,0.00,Wunderground v.1.15,2013-08-11 18:50:00,
2013-08-11 14:55:00,76.1,59.8,30.06,WSW,254,0.0,1.0,57,0.00,,,0.00,Wunderground v.1.15,2013-08-11 18:55:00,
2013-08-11 15:00:00,74.8,59.0,30.06,South,182,0.0,2.0,58,0.00,,,0.00,Wunderground v.1.15,2013-08-11 19:00:00,
2013-08-11 15:05:00,74.3,61.3,30.05,South,182,0.0,2.0,64,0.00,,,0.00,Wunderground v.1.15,2013-08-11 19:05:00,
2013-08-11 15:10:00,74.2,61.2,30.06,South,182,0.0,0.0,64,0.00,,,0.00,Wunderground v.1.15,2013-08-11 19:10:00,
2013-08-11 15:15:00,74.8,61.4,30.05,South,182,0.0,0.0,63,0.00,,,0.00,Wunderground v.1.15,2013-08-11 19:15:00,
2013-08-11 15:20:00,74.9,60.5,30.05,South,182,0.0,0.0,61,0.00,,,0.00,Wunderground v.1.15,2013-08-11 19:20:00,
2013-08-11 15:25:00,74.9,61.0,30.05,South,182,0.0,0.0,62,0.00,,,0.00,Wunderground v.1.15,2013-08-11 19:25:00,
2013-08-11 15:30:00,74.8,60.9,30.05,South,182,0.0,0.0,62,0.00,,,0.00,Wunderground v.1.15,2013-08-11 19:30:00,
2013-08-11 15:35:00,74.7,60.8,30.05,South,182,0.0,0.0,62,0.00,,,0.00,Wunderground v.1.15,2013-08-11 19:35:00,
2013-08-11 15:40:00,74.7,61.7,30.05,South,182,0.0,0.0,64,0.00,,,0.00,Wunderground v.1.15,2013-08-11 19:40:00,
2013-08-11 15:45:00,74.7,62.6,30.05,South,182,0.0,0.0,66,0.00,,,0.00,Wunderground v.1.15,2013-08-11 19:45:00,
2013-08-11 15:50:00,74.8,65.2,30.05,South,182,0.0,0.0,72,0.00,,,0.00,Wunderground v.1.15,2013-08-11 19:50:00,
2013-08-11 15:55:00,74.8,61.4,30.04,South,182,0.0,0.0,63,0.00,,,0.00,Wunderground v.1.15,2013-08-11 19:55:00,
2013-08-11 16:00:00,74.6,61.6,30.04,South,182,0.0,0.0,64,0.00,,,0.00,Wunderground v.1.15,2013-08-11 20:00:00,
2013-08-11 16:05:00,74.2,59.9,30.04,South,182,0.0,0.0,61,0.00,,,0.00,Wunderground v.1.15,2013-08-11 20:05:00,
2013-08-11 16:10:00,73.9,62.2,30.04,South,182,0.0,0.0,67,0.00,,,0.00,Wunderground v.1.15,2013-08-11 20:10:00,
2013-08-11 16:15:00,73.6,60.7,30.04,South,182,0.0,0.0,64,0.00,,,0.00,Wunderground v.1.15,2013-08-11 20:15:00,
2013-08-11 16:20:00,73.7,64.9,30.04,South,182,0.0,0.0,74,0.00,,,0.00,Wunderground v.1.15,2013-08-11 20:20:00,
2013-08-11 16:25:00,73.9,62.7,30.04,South,182,0.0,0.0,68,0.00,,,0.00,Wunderground v.1.15,2013-08-11 20:25:00,
2013-08-11 16:30:00,73.9,62.2,30.04,South,182,0.0,0.0,67,0.00,,,0.00,Wunderground v.1.15,2013-08-11 20:30:00,
2013-08-11 16:35:00,73.9,63.9,30.04,South,182,0.0,0.0,71,0.00,,,0.00,Wunderground v.1.15,2013-08-11 20:35:00,
2013-08-11 16:45:00,74.1,64.1,30.03,South,182,0.0,0.0,71,0.00,,,0.00,Wunderground v.1.15,2013-08-11 20:45:00,
2013-08-11 16:50:00,73.8,63.8,30.03,South,182,0.0,0.0,71,0.00,,,0.00,Wunderground v.1.15,2013-08-11 20:50:00,
2013-08-11 16:55:00,73.6,65.2,30.03,South,182,0.0,0.0,75,0.00,,,0.00,Wunderground v.1.15,2013-08-11 20:55:00,
2013-08-11 17:00:00,73.2,64.4,30.03,South,182,0.0,0.0,74,0.00,,,0.00,Wunderground v.1.15,2013-08-11 21:00:00,
2013-08-11 17:05:00,72.7,62.3,30.03,South,182,0.0,0.0,70,0.00,,,0.00,Wunderground v.1.15,2013-08-11 21:05:00,
2013-08-11 17:10:00,72.4,62.9,30.04,South,182,0.0,0.0,72,0.00,,,0.00,Wunderground v.1.15,2013-08-11 21:10:00,
2013-08-11 17:25:00,72.2,64.2,30.03,South,182,0.0,0.0,76,0.00,,,0.00,Wunderground v.1.15,2013-08-11 21:25:00,
2013-08-11 17:30:00,72.3,63.9,30.04,South,182,0.0,0.0,75,0.00,,,0.00,Wunderground v.1.15,2013-08-11 21:30:00,
2013-08-11 17:35:00,72.4,64.4,30.03,South,182,0.0,0.0,76,0.00,,,0.00,Wunderground v.1.15,2013-08-11 21:35:00,
2013-08-11 17:40:00,72.4,63.6,30.03,South,182,0.0,0.0,74,0.00,,,0.00,Wunderground v.1.15,2013-08-11 21:40:00,
2013-08-11 17:45:00,72.4,64.0,30.03,South,182,0.0,0.0,75,0.00,,,0.00,Wunderground v.1.15,2013-08-11 21:45:00,
2013-08-11 17:50:00,72.2,61.0,30.03,South,182,0.0,0.0,68,0.00,,,0.00,Wunderground v.1.15,2013-08-11 21:50:00,
2013-08-11 17:55:00,72.1,62.2,30.03,South,182,0.0,0.0,71,0.00,,,0.00,Wunderground v.1.15,2013-08-11 21:55:00,
2013-08-11 18:00:00,72.1,62.6,30.02,South,182,0.0,0.0,72,0.00,,,0.00,Wunderground v.1.15,2013-08-11 22:00:00,
2013-08-11 18:05:00,72.1,61.8,30.02,South,182,0.0,0.0,70,0.00,,,0.00,Wunderground v.1.15,2013-08-11 22:05:00,
2013-08-11 18:10:00,72.0,62.1,30.02,South,182,0.0,0.0,71,0.00,,,0.00,Wunderground v.1.15,2013-08-11 22:10:00,
2013-08-11 18:15:00,71.9,63.2,30.02,South,182,0.0,0.0,74,0.00,,,0.00,Wunderground v.1.15,2013-08-11 22:15:00,
2013-08-11 18:25:00,71.6,62.1,30.02,South,182,0.0,0.0,72,0.00,,,0.00,Wunderground v.1.15,2013-08-11 22:25:00,
2013-08-11 18:30:00,71.5,62.8,30.02,South,182,0.0,0.0,74,0.00,,,0.00,Wunderground v.1.15,2013-08-11 22:30:00,
2013-08-11 18:35:00,71.4,62.7,30.02,South,182,0.0,0.0,74,0.00,,,0.00,Wunderground v.1.15,2013-08-11 22:35:00,
2013-08-11 18:40:00,71.2,62.5,30.02,South,182,0.0,0.0,74,0.00,,,0.00,Wunderground v.1.15,2013-08-11 22:40:00,
2013-08-11 18:45:00,70.9,61.8,30.02,South,182,0.0,0.0,73,0.00,,,0.00,Wunderground v.1.15,2013-08-11 22:45:00,
2013-08-11 18:55:00,70.5,61.8,30.02,South,182,0.0,0.0,74,0.00,,,0.00,Wunderground v.1.15,2013-08-11 22:55:00,
2013-08-11 19:00:00,70.3,62.0,30.02,South,182,0.0,0.0,75,0.00,,,0.00,Wunderground v.1.15,2013-08-11 23:00:00,
2013-08-11 19:05:00,70.1,62.2,30.02,South,182,0.0,0.0,76,0.00,,,0.00,Wunderground v.1.15,2013-08-11 23:05:00,
2013-08-11 19:20:00,69.4,63.3,30.02,South,182,0.0,0.0,81,0.00,,,0.00,Wunderground v.1.15,2013-08-11 23:20:00,
2013-08-11 19:25:00,69.1,63.4,30.02,South,182,0.0,0.0,82,0.00,,,0.00,Wunderground v.1.15,2013-08-11 23:25:00,
2013-08-11 19:30:00,68.9,63.5,30.02,South,182,0.0,0.0,83,0.00,,,0.00,Wunderground v.1.15,2013-08-11 23:30:00,
2013-08-11 19:35:00,68.7,63.3,30.02,South,182,0.0,0.0,83,0.00,,,0.00,Wunderground v.1.15,2013-08-11 23:35:00,
2013-08-11 19:40:00,68.5,62.4,30.02,South,182,0.0,0.0,81,0.00,,,0.00,Wunderground v.1.15,2013-08-11 23:40:00,
2013-08-11 19:45:00,68.2,61.1,30.02,South,182,0.0,0.0,78,0.00,,,0.00,Wunderground v.1.15,2013-08-11 23:45:00,
2013-08-11 19:50:00,68.0,61.2,30.02,South,182,0.0,0.0,79,0.00,,,0.00,Wunderground v.1.15,2013-08-11 23:50:00,
2013-08-11 19:55:00,67.8,61.4,30.02,South,182,0.0,0.0,80,0.00,,,0.00,Wunderground v.1.15,2013-08-11 23:55:00,
2013-08-11 20:00:00,67.6,61.9,30.02,South,182,0.0,0.0,82,0.00,,,0.00,Wunderground v.1.15,2013-08-12 00:00:00,
2013-08-11 20:05:00,67.3,62.0,30.02,South,182,0.0,0.0,83,0.00,,,0.00,Wunderground v.1.15,2013-08-12 00:05:00,
2013-08-11 20:10:00,67.0,62.0,30.02,South,182,0.0,0.0,84,0.00,,,0.00,Wunderground v.1.15,2013-08-12 00:10:00,
2013-08-11 20:15:00,66.7,61.7,30.03,South,182,0.0,0.0,84,0.00,,,0.00,Wunderground v.1.15,2013-08-12 00:15:00,
2013-08-11 20:20:00,66.3,61.3,30.03,South,182,0.0,0.0,84,0.00,,,0.00,Wunderground v.1.15,2013-08-12 00:20:00,
2013-08-11 20:30:00,65.6,61.3,30.03,South,182,0.0,0.0,86,0.00,,,0.00,Wunderground v.1.15,2013-08-12 00:30:00,
2013-08-11 20:35:00,65.4,61.1,30.03,South,182,0.0,0.0,86,0.00,,,0.00,Wunderground v.1.15,2013-08-12 00:35:00,
2013-08-11 20:40:00,65.0,60.7,30.03,South,182,0.0,0.0,86,0.00,,,0.00,Wunderground v.1.15,2013-08-12 00:40:00,
2013-08-11 20:55:00,64.1,60.5,30.04,South,182,0.0,0.0,88,0.00,,,0.00,Wunderground v.1.15,2013-08-12 00:55:00,
2013-08-11 21:00:00,63.9,60.3,30.04,South,182,0.0,0.0,88,0.00,,,0.00,Wunderground v.1.15,2013-08-12 01:00:00,
2013-08-11 21:05:00,63.6,60.3,30.04,South,182,0.0,0.0,89,0.00,,,0.00,Wunderground v.1.15,2013-08-12 01:05:00,
2013-08-11 21:10:00,63.5,60.2,30.04,South,182,0.0,0.0,89,0.00,,,0.00,Wunderground v.1.15,2013-08-12 01:10:00,
2013-08-11 21:15:00,63.2,59.9,30.04,South,182,0.0,0.0,89,0.00,,,0.00,Wunderground v.1.15,2013-08-12 01:15:00,
2013-08-11 21:20:00,63.0,59.7,30.04,South,182,0.0,0.0,89,0.00,,,0.00,Wunderground v.1.15,2013-08-12 01:20:00,
2013-08-11 21:25:00,62.8,59.5,30.05,South,182,0.0,0.0,89,0.00,,,0.00,Wunderground v.1.15,2013-08-12 01:25:00,
2013-08-11 21:35:00,62.4,59.4,30.05,South,182,0.0,0.0,90,0.00,,,0.00,Wunderground v.1.15,2013-08-12 01:35:00,
2013-08-11 21:40:00,62.2,58.9,30.05,South,182,0.0,0.0,89,0.00,,,0.00,Wunderground v.1.15,2013-08-12 01:40:00,
2013-08-11 21:50:00,61.8,58.8,30.05,South,182,0.0,0.0,90,0.00,,,0.00,Wunderground v.1.15,2013-08-12 01:50:00,
2013-08-11 21:55:00,61.7,58.4,30.05,South,182,0.0,0.0,89,0.00,,,0.00,Wunderground v.1.15,2013-08-12 01:55:00,
2013-08-11 22:00:00,61.5,58.2,30.05,South,182,0.0,0.0,89,0.00,,,0.00,Wunderground v.1.15,2013-08-12 02:00:00,
2013-08-11 22:05:00,61.4,58.4,30.05,South,182,0.0,0.0,90,0.00,,,0.00,Wunderground v.1.15,2013-08-12 02:05:00,
2013-08-11 22:10:00,61.2,58.2,30.05,South,182,0.0,0.0,90,0.00,,,0.00,Wunderground v.1.15,2013-08-12 02:10:00,
2013-08-11 22:15:00,61.0,58.0,30.05,South,182,0.0,0.0,90,0.00,,,0.00,Wunderground v.1.15,2013-08-12 02:15:00,
2013-08-11 22:20:00,60.9,57.9,30.05,South,182,0.0,0.0,90,0.00,,,0.00,Wunderground v.1.15,2013-08-12 02:20:00,
2013-08-11 22:25:00,60.7,58.1,30.05,South,182,0.0,0.0,91,0.00,,,0.00,Wunderground v.1.15,2013-08-12 02:25:00,
2013-08-11 22:30:00,60.6,58.0,30.05,South,182,0.0,0.0,91,0.00,,,0.00,Wunderground v.1.15,2013-08-12 02:30:00,
2013-08-11 22:35:00,60.4,57.8,30.05,South,182,0.0,0.0,91,0.00,,,0.00,Wunderground v.1.15,2013-08-12 02:35:00,
2013-08-11 22:45:00,60.2,57.9,30.04,South,182,0.0,0.0,92,0.00,,,0.00,Wunderground v.1.15,2013-08-12 02:45:00,
2013-08-11 22:50:00,60.0,57.7,30.05,South,182,0.0,0.0,92,0.00,,,0.00,Wunderground v.1.15,2013-08-12 02:50:00,
2013-08-11 22:55:00,59.9,57.6,30.05,South,182,0.0,0.0,92,0.00,,,0.00,Wunderground v.1.15,2013-08-12 02:55:00,
2013-08-11 23:00:00,59.8,57.5,30.05,South,182,0.0,0.0,92,0.00,,,0.00,Wunderground v.1.15,2013-08-12 03:00:00,
2013-08-11 23:05:00,59.7,57.4,30.05,South,182,0.0,0.0,92,0.00,,,0.00,Wunderground v.1.15,2013-08-12 03:05:00,
2013-08-11 23:15:00,59.5,57.2,30.05,South,182,0.0,0.0,92,0.00,,,0.00,Wunderground v.1.15,2013-08-12 03:15:00,
2013-08-11 23:20:00,59.4,57.1,30.05,South,182,0.0,0.0,92,0.00,,,0.00,Wunderground v.1.15,2013-08-12 03:20:00,
2013-08-11 23:25:00,59.2,56.9,30.05,South,182,0.0,0.0,92,0.00,,,0.00,Wunderground v.1.15,2013-08-12 03:25:00,
2013-08-11 23:30:00,59.1,56.8,30.05,South,182,0.0,0.0,92,0.00,,,0.00,Wunderground v.1.15,2013-08-12 03:30:00,
2013-08-11 23:35:00,58.9,56.6,30.05,South,182,0.0,0.0,92,0.00,,,0.00,Wunderground v.1.15,2013-08-12 03:35:00,
2013-08-11 23:40:00,58.8,56.5,30.05,South,182,0.0,0.0,92,0.00,,,0.00,Wunderground v.1.15,2013-08-12 03:40:00,
2013-08-11 23:45:00,58.7,56.4,30.05,South,182,0.0,0.0,92,0.00,,,0.00,Wunderground v.1.15,2013-08-12 03:45:00,
2013-08-11 23:50:00,58.6,56.3,30.05,South,182,0.0,0.0,92,0.00,,,0.00,Wunderground v.1.15,2013-08-12 03:50:00,
2013-08-11 23:55:00,58.5,56.2,30.05,South,182,0.0,0.0,92,0.00,,,0.00,Wunderground v.1.15,2013-08-12 03:55:00,